• In Kazakhstan
  • List of Countries
  • For 7 days
  • Water Temperature
  • Weather Map
  • News
  • Weather Widgets
  • user-avatar
    Login

    Hourly Weather Naftalan

    Today, 22 November, Friday

    Time Temperature Precipitation Wind Pressure Humidity
    00:00 +9°C° 0.2 mm 7 mps 775 mmHg 69%
    01:00 +7°C° 0.2 mm 8 mps 774 mmHg 69%
    02:00 +7°C° 0.2 mm 8 mps 774 mmHg 69%
    03:00 +7°C° 0.2 mm 9 mps 774 mmHg 69%
    04:00 +7°C° 0.1 mm 9 mps 774 mmHg 70%
    05:00 +7°C° 0.1 mm 9 mps 775 mmHg 70%
    06:00 +6°C° 0.1 mm 9 mps 775 mmHg 70%
    07:00 +6°C° 0.1 mm 9 mps 775 mmHg 69%
    08:00 +6°C° 0.1 mm 9 mps 776 mmHg 67%
    09:00 +7°C° 0.1 mm 9 mps 776 mmHg 66%
    10:00 +6°C° 0.2 mm 9 mps 776 mmHg 67%
    11:00 +6°C° 0.2 mm 8 mps 776 mmHg 68%
    12:00 +6°C° 0.2 mm 8 mps 776 mmHg 69%
    13:00 +6°C° 0.4 mm 8 mps 776 mmHg 72%
    14:00 +6°C° 0.4 mm 8 mps 776 mmHg 75%
    15:00 +5°C° 0.4 mm 8 mps 776 mmHg 78%
    16:00 +5°C° 0.5 mm 8 mps 776 mmHg 79%
    17:00 +5°C° 0.5 mm 9 mps 777 mmHg 79%
    18:00 +5°C° 0.5 mm 9 mps 777 mmHg 80%
    19:00 +5°C° 0.4 mm 9 mps 777 mmHg 79%
    20:00 +5°C° 0.4 mm 8 mps 777 mmHg 78%
    21:00 +5°C° 0.4 mm 8 mps 777 mmHg 77%
    22:00 +4°C° 0.3 mm 8 mps 777 mmHg 76%
    23:00 +4°C° 0.3 mm 8 mps 777 mmHg 75%

    Tomorrow, 23 November, Saturday

    Time Temperature Precipitation Wind Pressure Humidity
    00:00 +4°C° 0.3 mm 7 mps 777 mmHg 74%
    01:00 +4°C° 0.2 mm 7 mps 777 mmHg 73%
    02:00 +4°C° 0.2 mm 6 mps 777 mmHg 72%
    03:00 +4°C° 0.2 mm 6 mps 777 mmHg 71%
    04:00 +4°C° 0.1 mm 6 mps 777 mmHg 71%
    05:00 +4°C° 0.1 mm 6 mps 777 mmHg 70%
    06:00 +4°C° 0.1 mm 6 mps 778 mmHg 70%
    07:00 +4°C° 0.2 mm 6 mps 778 mmHg 69%
    08:00 +4°C° 0.2 mm 6 mps 778 mmHg 68%
    09:00 +5°C° 0.2 mm 6 mps 778 mmHg 67%
    10:00 +6°C° 0.3 mm 5 mps 778 mmHg 65%
    11:00 +6°C° 0.3 mm 5 mps 778 mmHg 63%
    12:00 +7°C° 0.3 mm 5 mps 778 mmHg 61%
    13:00 +7°C° 0.1 mm 4 mps 777 mmHg 62%
    14:00 +6°C° 0.1 mm 4 mps 777 mmHg 63%
    15:00 +7°C° 0.1 mm 3 mps 777 mmHg 64%
    16:00 +7°C° 0.1 mm 3 mps 777 mmHg 66%
    17:00 +7°C° 0.1 mm 3 mps 777 mmHg 69%
    18:00 +7°C° 0.1 mm 3 mps 777 mmHg 71%
    19:00 +6°C° 0.2 mm 4 mps 777 mmHg 74%
    20:00 +6°C° 0.2 mm 4 mps 777 mmHg 77%
    21:00 +6°C° 0.2 mm 5 mps 777 mmHg 80%
    22:00 +6°C° 0.5 mm 5 mps 777 mmHg 81%
    23:00 +6°C° 0.5 mm 5 mps 777 mmHg 82%

    Day after tomorrow, 24 November, Sunday

    Time Temperature Precipitation Wind Pressure Humidity
    00:00 +6°C° 0.5 mm 5 mps 777 mmHg 82%
    01:00 +6°C° 0.5 mm 5 mps 777 mmHg 83%
    02:00 +6°C° 0.5 mm 5 mps 776 mmHg 83%
    03:00 +6°C° 0.5 mm 5 mps 776 mmHg 83%
    04:00 +5°C° 0.6 mm 5 mps 776 mmHg 84%
    05:00 +5°C° 0.6 mm 5 mps 776 mmHg 84%
    06:00 +5°C° 0.6 mm 5 mps 776 mmHg 84%
    07:00 +3°C° 0.9 mm 5 mps 776 mmHg 82%
    08:00 +3°C° 0.9 mm 5 mps 776 mmHg 81%
    09:00 +3°C° 0.9 mm 5 mps 776 mmHg 79%
    10:00 +3°C° 1.1 mm 5 mps 776 mmHg 77%
    11:00 +4°C° 1.1 mm 6 mps 775 mmHg 76%
    12:00 +4°C° 1.1 mm 6 mps 775 mmHg 75%
    13:00 +5°C° 0.6 mm 5 mps 775 mmHg 74%
    14:00 +5°C° 0.6 mm 5 mps 774 mmHg 73%
    15:00 +5°C° 0.6 mm 5 mps 774 mmHg 73%
    16:00 +5°C° 0.2 mm 4 mps 774 mmHg 72%
    17:00 +5°C° 0.2 mm 4 mps 774 mmHg 72%
    18:00 +5°C° 0.2 mm 4 mps 775 mmHg 71%
    19:00 +5°C° 0.1 mm 4 mps 775 mmHg 70%
    20:00 +5°C° 0.1 mm 4 mps 774 mmHg 69%
    21:00 +5°C° 0.1 mm 4 mps 774 mmHg 68%
    22:00 +5°C° 0 mm 4 mps 774 mmHg 68%
    23:00 +5°C° 0 mm 4 mps 774 mmHg 68%

    25 November, Monday

    Time Temperature Precipitation Wind Pressure Humidity
    00:00 +5°C° 0 mm 3 mps 774 mmHg 68%
    01:00 +5°C° 0 mm 3 mps 773 mmHg 68%
    02:00 +7°C° 0 mm 3 mps 773 mmHg 67%
    03:00 +7°C° 0 mm 3 mps 773 mmHg 66%
    04:00 +7°C° 0.1 mm 3 mps 773 mmHg 66%
    05:00 +7°C° 0.1 mm 3 mps 773 mmHg 65%
    06:00 +7°C° 0.1 mm 3 mps 773 mmHg 64%
    07:00 +7°C° 0.2 mm 3 mps 773 mmHg 64%
    08:00 +7°C° 0.2 mm 3 mps 773 mmHg 63%
    09:00 +7°C° 0.2 mm 3 mps 773 mmHg 63%
    10:00 +7°C° 0.1 mm 3 mps 772 mmHg 61%
    11:00 +8°C° 0.1 mm 3 mps 772 mmHg 60%
    12:00 +8°C° 0.1 mm 3 mps 772 mmHg 59%
    13:00 +8°C° 0 mm 3 mps 771 mmHg 59%
    14:00 +9°C° 0 mm 3 mps 771 mmHg 59%
    15:00 +9°C° 0 mm 2 mps 771 mmHg 59%
    16:00 +8°C° 0 mm 2 mps 771 mmHg 61%
    17:00 +8°C° 0 mm 2 mps 771 mmHg 64%
    18:00 +9°C° 0 mm 1 mps 771 mmHg 67%
    19:00 +9°C° 0 mm 1 mps 771 mmHg 66%
    20:00 +8°C° 0 mm 2 mps 771 mmHg 65%
    21:00 +8°C° 0 mm 2 mps 771 mmHg 64%
    22:00 +8°C° 0 mm 2 mps 771 mmHg 64%
    23:00 +8°C° 0 mm 2 mps 770 mmHg 64%

    26 November, Tuesday

    Time Temperature Precipitation Wind Pressure Humidity
    00:00 +8°C° 0 mm 3 mps 770 mmHg 64%
    01:00 +8°C° 0 mm 3 mps 770 mmHg 64%
    02:00 +8°C° 0 mm 3 mps 770 mmHg 64%
    03:00 +8°C° 0 mm 3 mps 770 mmHg 64%
    04:00 +8°C° 0 mm 3 mps 770 mmHg 64%
    05:00 +8°C° 0 mm 3 mps 770 mmHg 63%
    06:00 +7°C° 0 mm 3 mps 770 mmHg 63%
    07:00 +8°C° 0 mm 3 mps 770 mmHg 63%
    08:00 +8°C° 0 mm 3 mps 770 mmHg 62%
    09:00 +8°C° 0 mm 3 mps 770 mmHg 61%
    10:00 +9°C° 0 mm 3 mps 770 mmHg 60%
    11:00 +9°C° 0 mm 3 mps 769 mmHg 58%
    12:00 +10°C° 0 mm 2 mps 769 mmHg 57%
    13:00 +10°C° 0 mm 2 mps 769 mmHg 57%
    14:00 +10°C° 0 mm 2 mps 768 mmHg 58%
    15:00 +11°C° 0 mm 1 mps 768 mmHg 58%
    16:00 +11°C° 0 mm 1 mps 768 mmHg 60%
    17:00 +11°C° 0 mm 1 mps 768 mmHg 61%
    18:00 +11°C° 0 mm 1 mps 768 mmHg 63%
    19:00 +11°C° 0 mm 1 mps 768 mmHg 63%
    20:00 +10°C° 0 mm 2 mps 768 mmHg 64%
    21:00 +10°C° 0 mm 2 mps 768 mmHg 65%
    22:00 +10°C° 0 mm 2 mps 768 mmHg 66%
    23:00 +10°C° 0 mm 2 mps 767 mmHg 66%

    27 November, Wednesday

    Time Temperature Precipitation Wind Pressure Humidity
    00:00 +10°C° 0 mm 2 mps 767 mmHg 67%
    01:00 +9°C° 0 mm 3 mps 767 mmHg 66%
    02:00 +9°C° 0 mm 3 mps 767 mmHg 65%
    03:00 +9°C° 0 mm 3 mps 767 mmHg 65%
    04:00 +9°C° 0 mm 3 mps 767 mmHg 64%
    05:00 +9°C° 0 mm 3 mps 766 mmHg 63%
    06:00 +8°C° 0 mm 4 mps 766 mmHg 63%
    07:00 +9°C° 0 mm 3 mps 766 mmHg 62%
    08:00 +9°C° 0 mm 3 mps 766 mmHg 61%
    09:00 +9°C° 0 mm 3 mps 766 mmHg 60%
    10:00 +10°C° 0 mm 3 mps 766 mmHg 58%
    11:00 +11°C° 0 mm 3 mps 765 mmHg 57%
    12:00 +11°C° 0 mm 3 mps 765 mmHg 56%
    13:00 +11°C° 0.1 mm 3 mps 765 mmHg 59%
    14:00 +12°C° 0.1 mm 2 mps 765 mmHg 61%
    15:00 +12°C° 0.1 mm 2 mps 765 mmHg 64%
    16:00 +12°C° 0 mm 2 mps 765 mmHg 64%
    17:00 +10°C° 0 mm 2 mps 765 mmHg 64%
    18:00 +10°C° 0 mm 2 mps 765 mmHg 64%
    19:00 +10°C° 0 mm 3 mps 765 mmHg 63%
    20:00 +9°C° 0 mm 3 mps 765 mmHg 62%
    21:00 +9°C° 0 mm 3 mps 766 mmHg 62%
    22:00 +9°C° 0 mm 3 mps 766 mmHg 62%
    23:00 +9°C° 0 mm 3 mps 766 mmHg 63%
    Show more